Theta_e
290 289 289 288 288 288 287 286 286 279 280 281 281 286 287 288 288 287 283 289 290 291 292 292 292 293 293 293 294 294 295 295 295 295 296 296 296 297
288 287 288 287 287 287 288 286 286 287 282 282 282 283 287 288 288 284 282 287 289 290 291 291 291 292 292 293 293 293 293 294 294 294 294 294 295 295
286 285 287 286 289 287 286 286 286 285 284 280 281 282 285 285 285 283 283 282 284 288 290 290 290 291 291 292 292 291 292 292 292 292 292 292 293 294
285 285 285 287 286 285 286 287 288 285 284 278 279 280 282 284 283 282 281 281 280 285 289 289 290 290 290 291 291 290 290 290 290 290 289 290 291 292
285 285 286 284 286 286 285 286 286 285 285 279 278 279 279 283 279 279 279 278 280 284 288 289 289 290 290 291 290 289 289 289 288 288 287 289 289 290
285 286 286 285 285 285 285 285 285 284 286 281 277 278 278 281 281 278 278 280 279 280 284 285 287 288 290 290 289 288 288 288 287 287 287 288 288 289
284 285 285 285 287 287 285 285 285 285 284 285 281 276 277 279 279 279 278 279 279 279 278 279 281 281 283 288 286 287 287 287 286 286 287 287 287 287
283 284 284 285 285 289 290 290 288 285 285 284 284 280 279 279 280 279 279 278 275 280 279 278 280 279 281 282 285 287 286 287 286 286 287 287 286 286
284 284 284 284 284 284 287 290 290 291 290 286 285 284 281 280 280 279 279 280 280 279 280 278 279 279 281 282 286 286 286 286 286 286 286 286 286 285
283 283 283 284 284 284 284 283 284 286 287 287 286 286 286 282 282 281 281 282 278 279 281 275 280 279 280 280 285 286 286 286 286 286 285 284 284 284
282 283 283 283 285 287 284 282 282 283 287 290 290 290 290 289 284 282 279 278 272 276 279 277 276 277 278 278 280 286 286 286 286 285 284 283 283 284
280 282 284 283 286 287 285 284 281 282 283 283 285 288 289 288 286 283 282 278 279 274 278 275 275 276 274 278 278 279 281 285 285 283 282 282 282 279
278 279 281 285 287 287 288 285 283 284 283 283 282 283 284 284 283 283 283 282 280 276 278 278 275 275 275 274 277 278 279 279 278 279 280 281 281 280
277 280 281 284 286 286 287 288 288 287 283 281 281 281 281 281 281 282 282 282 282 280 279 279 275 274 272 272 272 276 277 278 278 277 278 278 280 281
278 281 283 284 285 285 287 288 286 285 282 280 280 280 281 281 281 280 280 278 277 278 279 276 276 276 275 272 272 273 273 276 277 276 277 276 275 276
278 280 281 282 283 283 283 285 285 284 282 280 280 280 280 279 278 278 276 276 274 273 276 276 276 276 273 273 273 272 274 272 275 275 275 275 276 276
273 276 277 276 276 279 281 282 282 283 281 281 279 278 277 278 277 278 276 275 273 270 270 272 274 275 274 273 270 272 272 272 274 274 273 272 274 274
272 271 273 275 274 277 279 279 279 280 281 281 278 278 277 276 274 274 274 273 272 270 270 270 270 270 270 271 273 270 271 271 272 273 273 270 270 273
270 271 271 273 275 276 278 277 278 279 281 280 278 278 275 274 272 271 271 271 270 270 270 270 269 269 266 264 270 275 270 271 271 270 271 270 269 270
269 270 271 273 276 276 277 277 278 278 278 278 276 274 273 272 271 271 270 270 270 270 269 269 269 269 267 267 267 270 275 271 269 268 268 270 271 274
268 270 272 274 276 277 277 277 278 276 275 274 274 273 273 272 271 271 270 270 269 269 267 267 269 272 270 268 265 265 269 272 272 269 269 268 266 267
270 272 275 277 277 277 277 277 276 274 273 273 272 272 271 271 270 269 269 268 268 268 268 268 269 269 267 266 265 265 266 268 271 272 272 271 267 263
271 272 276 277 276 274 275 274 273 273 272 271 271 270 270 269 269 269 268 268 267 267 267 266 267 267 266 266 266 265 265 265 266 265 266 270 270 271
Wind_Speed
11 9 8 5 5 6 4 5 7 6 9 6 5 9 8 9 11 11 11 17 17 16 15 13 13 12 10 8 7 6 5 5 4 4 5 6 7 8
6 8 9 5 7 5 6 5 4 8 7 6 7 6 11 9 11 11 10 15 20 19 17 14 14 12 10 9 8 6 6 6 5 5 6 7 8 8
7 8 11 8 10 7 6 6 6 4 5 3 3 5 11 12 10 9 10 8 8 17 17 16 15 13 12 11 9 8 7 7 6 5 6 7 8 9
8 9 11 8 12 7 8 13 13 8 6 6 4 4 7 14 12 12 8 8 9 15 18 18 17 16 14 14 11 10 8 8 7 6 5 6 7 8
10 10 12 9 13 10 9 12 11 9 8 5 5 3 2 9 7 7 8 4 5 13 18 19 19 19 18 16 14 12 11 9 8 6 6 6 8 7
11 12 12 12 14 13 12 13 11 10 12 6 4 5 4 7 9 10 8 8 9 8 13 12 15 19 19 19 17 14 12 11 10 8 7 7 8 9
11 12 13 13 17 16 11 13 12 12 11 13 8 4 7 8 16 9 10 8 7 6 7 6 7 6 9 17 11 15 16 13 11 10 10 8 8 7
13 13 12 14 14 22 24 27 18 16 17 14 13 14 15 12 13 11 10 7 7 9 9 8 9 8 7 7 15 17 16 16 13 11 10 9 7 7
14 13 13 11 13 13 20 27 28 28 29 17 17 19 15 17 17 16 16 13 10 6 12 8 8 9 7 8 17 18 17 16 15 13 11 8 7 7
15 15 16 16 15 15 13 15 19 19 22 18 19 19 14 14 19 19 20 15 4 5 9 6 8 7 6 6 18 19 18 16 15 12 9 6 6 7
15 16 15 17 21 25 17 16 16 18 20 30 30 26 23 23 22 11 12 13 4 5 10 5 4 5 6 5 6 20 18 17 16 10 7 6 7 9
17 17 23 20 26 27 18 16 17 20 15 14 15 21 19 16 30 21 15 16 13 6 8 7 6 6 3 3 6 6 7 17 16 10 7 7 8 2
15 14 12 25 27 29 30 17 20 14 19 14 13 13 16 14 15 18 17 16 15 5 11 10 7 7 3 5 4 6 7 8 5 5 7 7 9 7
19 15 14 25 27 27 23 29 31 25 11 11 11 13 14 14 13 14 13 13 9 5 16 12 7 9 7 5 5 5 4 4 4 4 4 5 10 11
17 21 29 28 29 25 28 28 25 14 12 12 13 13 12 10 8 8 8 8 7 11 15 7 6 10 8 5 6 5 5 2 3 4 3 4 4 4
25 19 16 20 23 22 16 18 14 12 13 12 11 10 8 9 10 10 8 10 8 5 8 9 8 10 6 4 5 6 5 5 4 5 4 3 3 6
22 14 11 11 10 11 13 12 12 12 12 12 10 10 10 10 11 10 9 9 10 11 9 6 7 6 5 6 6 5 6 5 6 5 5 5 6 6
19 17 14 10 11 10 10 10 11 13 11 11 10 11 12 11 10 8 8 9 9 9 7 8 9 8 4 1 4 6 5 5 5 5 5 5 6 6
16 15 15 13 12 9 8 8 9 10 11 9 11 11 11 11 14 11 11 10 9 10 9 10 11 8 6 5 3 17 7 6 5 4 3 4 6 9
12 12 13 11 13 8 8 10 9 8 9 8 9 11 13 14 14 13 12 12 10 9 9 9 9 9 8 7 5 1 19 5 3 4 5 6 8 18
11 12 13 12 13 8 9 9 10 8 9 10 11 12 12 12 12 11 10 13 12 8 10 8 7 9 7 6 4 2 1 5 7 5 4 6 8 10
12 13 11 11 7 8 9 9 8 9 9 9 9 10 9 10 11 11 11 11 10 9 7 7 8 7 5 4 4 5 4 4 6 10 14 14 7 7
10 9 7 6 5 7 8 7 8 8 8 9 9 9 10 9 9 9 10 9 10 10 9 9 7 5 4 5 5 4 5 4 4 6 7 15 20 24
Wind_Direction
232 230 222 214 213 207 191 171 176 172 214 222 178 200 188 185 186 180 174 192 206 212 209 208 205 207 213 224 231 250 261 277 293 308 319 325 330 333
233 235 233 221 219 210 209 199 191 204 227 182 197 175 185 189 188 178 183 191 204 206 208 209 212 214 219 222 235 248 261 266 280 301 313 319 324 325
233 233 239 227 231 221 208 200 206 170 188 244 164 178 175 181 174 182 184 176 192 213 213 204 207 213 221 223 232 241 249 260 277 297 312 321 319 330
236 234 240 235 238 218 212 221 219 203 166 168 182 157 191 188 175 184 185 187 178 209 220 214 207 208 214 218 222 229 242 258 268 278 291 299 310 315
244 239 240 222 237 235 222 222 221 212 200 148 178 172 152 179 163 175 189 192 191 196 209 219 217 212 212 213 216 222 225 239 257 268 284 289 290 293
256 251 249 230 233 231 229 226 222 217 216 197 180 163 160 173 181 176 189 203 208 198 207 207 221 224 220 214 209 212 226 230 228 234 235 251 275 281
264 258 257 249 238 225 226 231 217 213 218 218 205 162 176 162 191 184 196 194 216 204 191 194 197 212 227 223 216 209 216 214 214 214 231 238 251 271
267 261 255 257 253 248 240 235 218 215 219 218 220 211 199 192 185 181 180 184 208 198 195 201 186 206 212 210 213 212 207 197 206 211 226 236 250 266
259 265 265 253 252 255 253 248 241 227 224 221 226 221 202 191 177 183 193 200 207 177 185 192 174 203 194 203 208 209 203 203 206 207 217 229 244 286
256 251 250 256 247 240 241 248 251 245 235 227 226 232 222 193 196 190 188 190 66 157 172 170 170 192 179 191 212 210 210 207 207 210 213 233 273 287
259 254 249 251 249 246 239 235 233 240 249 243 236 234 228 198 190 176 187 170 180 199 189 138 155 143 178 186 202 207 206 211 202 202 226 260 281 288
259 256 247 246 250 246 243 234 235 236 228 240 251 240 228 217 193 196 180 191 188 181 190 148 146 141 169 193 195 209 210 199 178 197 218 248 276 256
260 256 248 246 250 247 243 235 236 231 232 223 224 225 224 215 205 204 194 197 195 194 181 157 157 155 120 148 163 184 187 176 163 191 219 241 272 259
255 253 252 252 252 253 250 243 239 235 223 218 216 213 218 216 205 201 199 197 200 196 171 176 153 160 142 163 155 181 182 169 156 196 176 244 262 265
270 256 252 254 258 258 255 250 238 230 216 218 222 217 209 212 201 179 181 131 101 145 165 156 151 154 150 146 156 159 150 149 206 211 194 176 222 218
276 263 256 257 260 255 252 248 229 222 216 216 218 212 189 183 190 179 177 167 142 136 138 153 144 146 132 170 129 148 140 156 188 206 207 199 215 241
285 281 250 243 246 251 243 235 217 217 213 212 203 192 188 186 188 186 181 181 176 160 152 152 147 137 127 175 129 163 152 188 208 231 239 236 237 242
270 271 269 259 235 237 246 228 212 213 213 211 195 188 188 181 167 166 166 180 172 170 159 155 154 137 150 188 167 147 175 198 212 222 232 240 260 254
260 260 256 254 257 233 230 217 216 216 213 206 192 186 168 165 160 164 165 178 175 162 169 166 166 165 141 163 136 196 181 188 193 206 224 243 262 272
273 263 256 257 257 217 208 213 216 207 205 195 178 165 168 164 170 174 179 174 169 162 154 164 168 168 169 162 124 103 189 154 165 227 258 264 263 277
247 252 250 239 247 198 203 208 206 184 176 171 171 171 173 169 173 170 171 167 164 160 159 163 158 134 103 93 98 129 144 226 225 227 276 283 289 284
237 237 269 218 197 194 202 199 178 174 168 167 163 161 159 163 159 157 158 156 157 151 142 130 133 136 125 147 157 143 165 199 248 269 275 270 273 276
240 229 224 191 180 174 172 165 156 155 155 151 151 148 148 147 148 147 146 146 140 133 138 135 134 136 152 171 171 175 187 229 254 267 257 269 274 277